GW3992 Weather Reports


time (UTC)temp
C
wind
direction
speed
KPH
gust
KPH
rain 1hr
cm
rain 24hr
cm
rain mn
cm
humidity
%
barometer
mb
20260509201523 13 227 3.2 6.4 0.00 0.00 0.00 73 1005.1
20260509201021 13 58 0.0 0.0 0.00 0.00 0.00 72 1005.3
20260509200521 13 35 0.0 1.6 0.00 0.00 0.00 71 1005.5
20260509200018 13 61 0.0 0.0 0.00 0.00 0.00 71 1005.5
20260509195513 13 206 1.6 1.6 0.00 0.00 0.00 73 1005.5
20260509195008 14 63 0.0 0.0 0.00 0.00 0.00 72 1005.7
20260509194504 13 279 3.2 3.2 0.00 0.00 0.00 72 1005.6
20260509194001 13 76 3.2 4.8 0.00 0.00 0.00 74 1005.8
20260509193500 13 41 3.2 4.8 0.00 0.00 0.00 74 1005.7
20260509192956 13 87 6.4 9.7 0.00 0.00 0.00 75 1005.5
20260509192453 14 78 1.6 3.2 0.00 0.00 0.00 73 1006.0
20260509191948 13 75 1.6 3.2 0.00 0.00 0.00 75 1006.2
20260509191443 13 59 3.2 4.8 0.00 0.00 0.00 79 1006.0
20260509190940 13 95 4.8 4.8 0.00 0.00 0.00 80 1006.4
20260509190437 13 203 8.0 9.7 0.00 0.00 0.00 79 1006.0
20260509185935 13 24 3.2 3.2 0.00 0.00 0.00 79 1006.5
20260509185432 13 71 1.6 3.2 0.00 0.00 0.00 75 1006.5
20260509184928 13 51 4.8 6.4 0.00 0.00 0.00 72 1006.6
20260509184426 13 159 1.6 3.2 0.00 0.00 0.00 70 1006.6
20260509183923 13 40 4.8 6.4 0.00 0.00 0.00 74 1006.8
20260509183417 13 50 3.2 3.2 0.00 0.00 0.00 78 1006.9
20260509182914 13 132 1.6 1.6 0.00 0.00 0.00 79 1006.9
20260509182411 13 76 1.6 3.2 0.00 0.00 0.00 81 1006.8
20260509181908 13 99 1.6 3.2 0.00 0.00 0.00 83 1006.9
20260509181406 13 76 0.0 1.6 0.00 0.00 0.00 82 1007.1
20260509180903 13 30 1.6 4.8 0.00 0.00 0.00 83 1007.6
20260509180358 13 63 1.6 4.8 0.00 0.00 0.00 83 1007.3
20260509175855 13 133 0.0 3.2 0.00 0.00 0.00 85 1007.3
20260509175351 13 68 3.2 6.4 0.00 0.00 0.00 84 1007.5
20260509174847 13 76 0.0 1.6 0.00 0.00 0.00 83 1007.6
20260509174343 13 70 1.6 3.2 0.00 0.00 0.00 84 1007.7
20260509173839 13 161 4.8 11.3 0.00 0.00 0.00 84 1007.5
20260509173335 13 57 1.6 1.6 0.00 0.00 0.00 81 1007.8
20260509172831 13 57 0.0 0.0 0.00 0.00 0.00 80 1007.6
20260509172328 13 143 3.2 4.8 0.00 0.00 0.00 81 1007.6
20260509171824 13 80 0.0 0.0 0.00 0.00 0.00 82 1007.9
20260509171319 13 198 6.4 12.9 0.00 0.00 0.00 84 1007.5
20260509170816 13 60 0.0 1.6 0.00 0.00 0.00 85 1007.7
20260509170312 13 60 0.0 1.6 0.00 0.00 0.00 83 1007.6
20260509165812 13 40 4.8 6.4 0.00 0.00 0.00 83 1007.8
20260509165307 13 41 0.0 1.6 0.00 0.00 0.00 82 1007.7
20260509164803 13 183 0.0 1.6 0.00 0.00 0.00 82 1007.9
20260509164259 13 68 1.6 3.2 0.00 0.00 0.00 82 1007.9
20260509163756 13 129 0.0 0.0 0.00 0.00 0.00 81 1008.0
20260509163252 13 33 0.0 1.6 0.00 0.00 0.00 82 1007.8
20260509162751 13 64 0.0 0.0 0.00 0.00 0.00 82 1008.1
20260509162245 13 191 1.6 6.4 0.00 0.00 0.00 81 1007.8
20260509161742 13 75 0.0 1.6 0.00 0.00 0.00 79 1008.1
20260509161237 13 56 0.0 1.6 0.00 0.00 0.00 78 1008.1
20260509160732 13 94 1.6 3.2 0.00 0.00 0.00 75 1008.3
20260509160229 13 187 0.0 1.6 0.00 0.00 0.00 77 1008.0
20260509155724 13 49 0.0 1.6 0.00 0.00 0.00 74 1008.1
20260509155221 13 96 1.6 3.2 0.00 0.00 0.00 79 1008.2
20260509154717 13 90 6.4 9.7 0.00 0.00 0.00 77 1008.2
20260509154214 13 63 0.0 0.0 0.00 0.00 0.00 83 1008.3
20260509153711 13 86 0.0 0.0 0.00 0.00 0.00 82 1008.3
20260509153208 13 77 1.6 1.6 0.00 0.00 0.00 79 1008.4
20260509152704 13 139 8.0 12.9 0.00 0.00 0.00 79 1008.3
20260509152200 13 93 0.0 0.0 0.00 0.00 0.00 78 1008.4
20260509151657 13 52 6.4 6.4 0.00 0.00 0.00 78 1008.5
20260509151154 13 90 0.0 0.0 0.00 0.00 0.00 80 1008.2
20260509150652 13 82 0.0 0.0 0.00 0.00 0.00 78 1008.5
20260509150150 14 66 6.4 12.9 0.00 0.00 0.00 77 1008.4
20260509145646 14 64 1.6 3.2 0.00 0.00 0.00 75 1008.5
20260509145141 14 62 1.6 1.6 0.00 0.00 0.00 74 1008.3
20260509144638 14 77 0.0 0.0 0.00 0.00 0.00 74 1008.6
20260509144136 14 89 0.0 1.6 0.00 0.00 0.00 75 1008.6
20260509143633 14 86 0.0 0.0 0.00 0.00 0.00 75 1008.6
20260509143130 14 74 1.6 3.2 0.00 0.00 0.00 75 1008.7
20260509142625 14 90 0.0 0.0 0.00 0.00 0.00 75 1008.4
20260509142122 14 52 0.0 0.0 0.00 0.00 0.00 73 1008.4
20260509141618 15 49 0.0 0.0 0.00 0.00 0.00 72 1008.5
20260509141114 14 248 0.0 0.0 0.00 0.00 0.00 71 1008.5
20260509140612 15 28 3.2 3.2 0.00 0.00 0.00 69 1008.7
20260509140110 14 57 1.6 3.2 0.00 0.00 0.00 68 1008.5
20260509135607 15 96 0.0 0.0 0.00 0.00 0.00 69 1008.5
20260509135105 15 54 0.0 1.6 0.00 0.00 0.00 70 1008.6
20260509134601 15 97 0.0 0.0 0.00 0.00 0.00 70 1008.6
20260509134058 15 11 1.6 4.8 0.00 0.00 0.00 71 1008.6
20260509133555 15 50 1.6 1.6 0.00 0.00 0.00 74 1008.6
20260509133053 14 84 0.0 0.0 0.00 0.00 0.00 73 1008.7
20260509132551 15 73 1.6 1.6 0.00 0.00 0.00 75 1008.7
20260509132049 15 73 0.0 1.6 0.00 0.00 0.00 74 1008.7
20260509131544 15 100 0.0 0.0 0.00 0.00 0.00 74 1008.8
20260509131042 15 189 4.8 9.7 0.00 0.00 0.00 72 1008.8
20260509130537 15 86 4.8 9.7 0.00 0.00 0.00 73 1008.9
20260509130034 15 53 3.2 6.4 0.00 0.00 0.00 72 1008.8
20260509125531 15 100 1.6 3.2 0.00 0.00 0.00 71 1009.1
20260509125028 15 190 4.8 11.3 0.00 0.00 0.00 69 1009.1
20260509124524 15 134 1.6 3.2 0.00 0.00 0.00 70 1009.2
20260509124022 15 77 4.8 4.8 0.00 0.00 0.00 68 1009.3
20260509123520 15 59 1.6 3.2 0.00 0.00 0.00 67 1009.4
20260509123015 16 120 0.0 0.0 0.00 0.00 0.00 62 1009.6
20260509122512 16 127 0.0 0.0 0.00 0.00 0.00 64 1009.7
20260509122009 16 236 4.8 6.4 0.00 0.00 0.00 61 1009.8
20260509121505 16 36 1.6 1.6 0.00 0.00 0.00 59 1009.9
20260509121003 16 188 3.2 3.2 0.00 0.00 0.00 57 1010.2
20260509120501 15 59 1.6 1.6 0.00 0.00 0.00 57 1010.1
20260509115959 15 178 3.2 3.2 0.00 0.00 0.00 61 1010.2
20260509115456 15 75 0.0 0.0 0.00 0.00 0.00 61 1010.2
20260509114953 15 54 4.8 6.4 0.00 0.00 0.00 61 1010.5
20260509114451 15 65 1.6 1.6 0.00 0.00 0.00 59 1010.4
20260509113951 15 264 3.2 4.8 0.00 0.00 0.00 59 1010.4
20260509113447 15 83 1.6 3.2 0.00 0.00 0.00 62 1010.4
20260509112944 15 54 1.6 1.6 0.00 0.00 0.00 63 1010.5
20260509112442 15 243 3.2 3.2 0.00 0.00 0.00 57 1010.9
20260509111938 15 72 1.6 3.2 0.00 0.00 0.00 59 1010.7
20260509111436 15 63 3.2 4.8 0.00 0.00 0.00 59 1011.1
20260509110933 15 66 1.6 3.2 0.00 0.00 0.00 56 1011.1
20260509110429 16 221 4.8 6.4 0.00 0.00 0.00 55 1010.9
20260509105927 16 185 3.2 6.4 0.00 0.00 0.00 55 1011.1
20260509105426 16 74 1.6 3.2 0.00 0.00 0.00 56 1011.2
20260509104922 16 166 4.8 6.4 0.00 0.00 0.00 54 1011.4
20260509104419 16 75 0.0 0.0 0.00 0.00 0.00 58 1011.3
20260509103916 16 131 6.4 9.7 0.00 0.00 0.00 55 1011.4
20260509103413 16 148 0.0 1.6 0.00 0.00 0.00 57 1011.2
20260509102912 15 95 0.0 1.6 0.00 0.00 0.00 58 1011.3
20260509102409 15 191 8.0 9.7 0.00 0.00 0.00 57 1011.6
20260509101905 15 129 3.2 6.4 0.00 0.00 0.00 59 1011.6
20260509101400 15 75 4.8 6.4 0.00 0.00 0.00 56 1011.9
20260509100859 15 45 1.6 1.6 0.00 0.00 0.00 57 1011.9
20260509100356 15 78 0.0 0.0 0.00 0.00 0.00 60 1012.0
20260509095852 15 72 3.2 9.7 0.00 0.00 0.00 61 1011.7
20260509095350 15 65 0.0 0.0 0.00 0.00 0.00 61 1012.0
20260509094847 15 82 0.0 1.6 0.00 0.00 0.00 66 1012.2
20260509094343 15 240 3.2 4.8 0.00 0.00 0.00 61 1012.2
20260509093841 15 180 3.2 3.2 0.00 0.00 0.00 63 1012.4
20260509093338 15 59 1.6 1.6 0.00 0.00 0.00 64 1012.3
20260509092837 15 50 0.0 0.0 0.00 0.00 0.00 66 1012.6
20260509092334 15 192 1.6 3.2 0.00 0.00 0.00 64 1012.5
20260509091832 15 324 3.2 4.8 0.00 0.00 0.00 67 1012.6
20260509091328 15 290 6.4 9.7 0.00 0.00 0.00 65 1012.8
20260509090826 15 70 1.6 1.6 0.00 0.00 0.00 66 1013.0
20260509090323 15 328 3.2 3.2 0.00 0.00 0.00 71 1013.1
20260509085820 14 230 1.6 1.6 0.00 0.00 0.00 74 1013.1
20260509085318 14 60 0.0 0.0 0.00 0.00 0.00 76 1013.2
20260509084814 14 265 1.6 3.2 0.00 0.00 0.00 77 1013.1
20260509084311 13 202 1.6 1.6 0.00 0.00 0.00 77 1013.1
20260509083809 14 56 0.0 1.6 0.00 0.00 0.00 79 1013.3
20260509083305 14 140 4.8 4.8 0.00 0.00 0.00 78 1013.6
20260509082802 14 225 4.8 11.3 0.00 0.00 0.00 77 1013.3
20260509082258 13 199 4.8 6.4 0.00 0.00 0.00 78 1013.7
20260509081755 13 240 1.6 3.2 0.00 0.00 0.00 80 1013.9
20260509081253 13 204 1.6 3.2 0.00 0.00 0.00 79 1013.8
20260509080751 13 215 3.2 3.2 0.00 0.00 0.00 79 1013.9
20260509080248 13 231 6.4 9.7 0.00 0.00 0.00 79 1013.8
20260509075747 13 248 3.2 3.2 0.00 0.00 0.00 80 1013.9
20260509075243 13 236 6.4 6.4 0.00 0.00 0.00 79 1013.9
20260509074740 13 252 6.4 9.7 0.00 0.00 0.00 79 1014.2
20260509074238 13 232 3.2 4.8 0.00 0.00 0.00 77 1013.9
20260509073734 13 246 3.2 4.8 0.00 0.00 0.00 77 1013.9
20260509073230 13 253 0.0 0.0 0.00 0.00 0.00 75 1014.1
20260509072727 13 141 3.2 3.2 0.00 0.00 0.00 75 1014.1
20260509072224 13 79 0.0 0.0 0.00 0.00 0.00 76 1014.1
20260509071721 13 245 4.8 4.8 0.00 0.00 0.00 76 1014.2
20260509071218 13 277 1.6 1.6 0.00 0.00 0.00 74 1014.1
20260509070715 13 174 0.0 1.6 0.00 0.00 0.00 73 1014.0
20260509070211 12 257 3.2 4.8 0.00 0.00 0.00 81 1014.0
20260509065707 12 125 0.0 0.0 0.00 0.00 0.00 83 1014.0
20260509065203 12 278 4.8 6.4 0.00 0.00 0.00 84 1014.2
20260509064700 12 201 8.0 9.7 0.00 0.00 0.00 84 1014.2
20260509064158 12 253 9.7 11.3 0.00 0.00 0.00 84 1014.1
20260509063655 12 239 8.0 9.7 0.00 0.00 0.00 83 1014.1
20260509063151 12 246 6.4 6.4 0.00 0.00 0.00 82 1014.0
20260509062649 12 265 8.0 11.3 0.00 0.00 0.00 83 1013.8
20260509062146 12 280 4.8 6.4 0.00 0.00 0.00 83 1014.2
20260509061642 12 270 3.2 4.8 0.00 0.00 0.00 81 1013.8
20260509061140 12 271 3.2 3.2 0.00 0.00 0.00 80 1014.0
20260509060638 12 248 4.8 4.8 0.00 0.00 0.00 81 1014.2
20260509060133 11 322 1.6 3.2 0.00 0.00 0.00 81 1014.2
20260509055629 11 4 0.0 1.6 0.00 0.00 0.00 79 1014.1
20260509055125 11 217 3.2 4.8 0.00 0.00 0.00 80 1014.1
20260509054622 11 43 0.0 0.0 0.00 0.00 0.00 81 1014.1
20260509054120 11 270 1.6 1.6 0.00 0.00 0.00 83 1014.2
20260509053618 12 310 0.0 1.6 0.00 0.00 0.00 83 1014.1
20260509053115 12 284 8.0 9.7 0.00 0.00 0.00 82 1014.4
20260509052613 11 276 3.2 3.2 0.00 0.00 0.00 77 1014.2
20260509052110 11 308 3.2 3.2 0.00 0.00 0.00 76 1014.1
20260509051608 11 318 0.0 0.0 0.00 0.00 0.00 73 1014.1
20260509051104 11 296 0.0 0.0 0.00 0.00 0.00 75 1014.4
20260509050601 11 45 0.0 0.0 0.00 0.00 0.00 74 1014.3
20260509050058 11 53 0.0 0.0 0.00 0.00 0.00 74 1014.5
20260509045556 11 48 0.0 0.0 0.00 0.00 0.00 74 1014.2
20260509045053 11 261 0.0 1.6 0.00 0.00 0.00 74 1014.4
20260509044550 11 17 0.0 0.0 0.00 0.00 0.00 74 1014.4
20260509044047 11 17 0.0 0.0 0.00 0.00 0.00 74 1014.3
20260509043543 12 18 0.0 0.0 0.00 0.00 0.00 73 1014.4
20260509043039 12 350 1.6 1.6 0.00 0.00 0.00 71 1014.5
20260509042535 12 261 3.2 4.8 0.00 0.00 0.00 69 1014.6
20260509042031 12 301 0.0 0.0 0.00 0.00 0.00 70 1014.5
20260509041528 12 301 0.0 0.0 0.00 0.00 0.00 69 1014.6
20260509041026 12 307 0.0 1.6 0.00 0.00 0.00 68 1014.6
20260509040524 12 308 3.2 3.2 0.00 0.00 0.00 69 1014.5
20260509040021 12 308 0.0 0.0 0.00 0.00 0.00 66 1014.5
20260509035518 12 308 0.0 0.0 0.00 0.00 0.00 67 1014.4
20260509035014 12 308 0.0 0.0 0.00 0.00 0.00 66 1014.6
20260509034513 12 308 0.0 0.0 0.00 0.00 0.00 64 1014.5
20260509034009 12 308 0.0 0.0 0.00 0.00 0.00 63 1014.7
20260509033506 12 308 0.0 1.6 0.00 0.00 0.00 62 1014.7
20260509033003 12 309 3.2 3.2 0.00 0.00 0.00 61 1014.6
20260509032500 12 36 0.0 0.0 0.00 0.00 0.00 59 1014.7
20260509031958 12 37 0.0 0.0 0.00 0.00 0.00 60 1014.6
20260509031454 12 37 0.0 0.0 0.00 0.00 0.00 63 1014.7
20260509030952 12 37 0.0 0.0 0.00 0.00 0.00 66 1014.8
20260509030450 12 37 0.0 0.0 0.00 0.00 0.00 66 1014.9
20260509025947 12 37 0.0 0.0 0.00 0.00 0.00 66 1014.8
20260509025442 12 37 0.0 0.0 0.00 0.00 0.00 64 1014.9
20260509024938 12 37 0.0 0.0 0.00 0.00 0.00 64 1014.9
20260509024434 12 37 0.0 0.0 0.00 0.00 0.00 63 1015.3
20260509023931 12 36 0.0 0.0 0.00 0.00 0.00 62 1015.2
20260509023428 12 36 0.0 0.0 0.00 0.00 0.00 60 1015.3
20260509022925 12 36 0.0 0.0 0.00 0.00 0.00 62 1015.2
20260509022422 12 36 0.0 0.0 0.00 0.00 0.00 64 1015.4
20260509021920 12 36 0.0 0.0 0.00 0.00 0.00 64 1015.4
20260509021416 12 36 0.0 0.0 0.00 0.00 0.00 64 1015.5
20260509020914 13 36 0.0 0.0 0.00 0.00 0.00 62 1015.6
20260509020412 12 36 0.0 0.0 0.00 0.00 0.00 62 1015.6
20260509015909 12 36 0.0 0.0 0.00 0.00 0.00 63 1015.8
20260509015408 12 36 0.0 0.0 0.00 0.00 0.00 64 1015.6
20260509014903 12 37 0.0 0.0 0.00 0.00 0.00 65 1015.8
20260509014400 12 36 0.0 0.0 0.00 0.00 0.00 65 1015.8
20260509013857 12 36 0.0 0.0 0.00 0.00 0.00 66 1015.8
20260509013354 12 36 0.0 0.0 0.00 0.00 0.00 66 1016.1
20260509012849 12 36 0.0 0.0 0.00 0.00 0.00 65 1016.1
20260509012346 12 36 0.0 0.0 0.00 0.00 0.00 66 1016.2
20260509011844 12 36 0.0 0.0 0.00 0.00 0.00 63 1016.1
20260509011341 12 36 0.0 0.0 0.00 0.00 0.00 64 1016.2
20260509010839 12 36 0.0 0.0 0.00 0.00 0.00 65 1016.2
20260509010336 12 36 0.0 0.0 0.00 0.00 0.00 65 1016.4
20260509005833 12 36 0.0 0.0 0.00 0.00 0.00 65 1016.6
20260509005332 12 36 0.0 0.0 0.00 0.00 0.00 65 1016.7
20260509004831 12 36 0.0 0.0 0.00 0.00 0.00 66 1016.8
20260509004328 12 36 0.0 0.0 0.00 0.00 0.00 66 1016.6
20260509003825 12 36 0.0 0.0 0.00 0.00 0.00 65 1016.7
20260509003323 12 36 0.0 0.0 0.00 0.00 0.00 66 1016.8
20260509002820 12 36 0.0 0.0 0.00 0.00 0.00 66 1016.6
20260509002317 12 347 0.0 0.0 0.00 0.00 0.00 68 1016.7
20260509001815 12 346 0.0 0.0 0.00 0.00 0.00 70 1016.8
20260509001310 11 23 0.0 0.0 0.00 0.00 0.00 72 1016.9
20260509000809 11 26 0.0 0.0 0.00 0.00 0.00 76 1016.9
20260509000307 12 26 0.0 0.0 0.00 0.00 0.00 77 1017.1
20260508235802 12 26 0.0 0.0 0.00 0.00 0.00 75 1017.0
20260508235259 12 26 0.0 0.0 0.00 0.00 0.00 70 1017.1
20260508234756 12 26 0.0 0.0 0.00 0.00 0.00 70 1017.1
20260508234253 12 26 0.0 0.0 0.00 0.00 0.00 70 1017.3
20260508233747 12 26 0.0 0.0 0.00 0.00 0.00 73 1017.1
20260508233245 11 26 0.0 0.0 0.00 0.00 0.00 72 1017.2
20260508232742 12 26 0.0 0.0 0.00 0.00 0.00 72 1017.1
20260508232238 12 26 0.0 0.0 0.00 0.00 0.00 72 1017.2
20260508231736 12 26 0.0 0.0 0.00 0.00 0.00 71 1017.3
20260508231233 12 26 0.0 0.0 0.00 0.00 0.00 71 1017.1
20260508230730 12 26 0.0 0.0 0.00 0.00 0.00 71 1017.2
20260508230226 12 39 0.0 0.0 0.00 0.00 0.00 70 1017.3
20260508225724 12 39 0.0 0.0 0.00 0.00 0.00 69 1017.1
20260508225220 12 41 0.0 0.0 0.00 0.00 0.00 69 1017.3
20260508224718 12 41 0.0 0.0 0.00 0.00 0.00 69 1017.5
20260508224215 12 41 0.0 0.0 0.00 0.00 0.00 69 1017.5
20260508223713 12 42 0.0 0.0 0.00 0.00 0.00 69 1017.5
20260508223210 12 42 0.0 0.0 0.00 0.00 0.00 69 1017.5
20260508222707 12 43 0.0 0.0 0.00 0.00 0.00 69 1017.6
20260508222205 12 42 0.0 0.0 0.00 0.00 0.00 69 1017.5
20260508221701 12 42 0.0 0.0 0.00 0.00 0.00 70 1017.7
20260508221156 12 26 0.0 0.0 0.00 0.00 0.00 70 1017.8
20260508220653 12 24 0.0 0.0 0.00 0.00 0.00 71 1017.8
20260508220150 12 32 0.0 0.0 0.00 0.00 0.00 71 1017.7
20260508215646 12 37 0.0 0.0 0.00 0.00 0.00 71 1017.8
20260508215143 12 356 0.0 0.0 0.00 0.00 0.00 72 1017.9
20260508214640 12 33 0.0 0.0 0.00 0.00 0.00 72 1018.1
20260508214137 12 33 0.0 0.0 0.00 0.00 0.00 72 1017.9
20260508213634 12 35 0.0 0.0 0.00 0.00 0.00 72 1017.8
20260508213130 12 35 0.0 0.0 0.00 0.00 0.00 72 1018.1
20260508212627 12 34 0.0 0.0 0.00 0.00 0.00 73 1018.0
20260508212123 12 30 0.0 0.0 0.00 0.00 0.00 73 1018.5
20260508211618 12 36 0.0 0.0 0.00 0.00 0.00 74 1018.3
20260508211115 12 36 0.0 0.0 0.00 0.00 0.00 74 1018.4
20260508210612 12 37 0.0 0.0 0.00 0.00 0.00 75 1018.4
20260508210109 12 36 0.0 0.0 0.00 0.00 0.00 75 1018.5
20260508205606 12 39 0.0 0.0 0.00 0.00 0.00 75 1018.4
20260508205103 12 46 0.0 0.0 0.00 0.00 0.00 76 1018.4
20260508204559 12 41 0.0 0.0 0.00 0.00 0.00 77 1018.4
20260508204055 12 42 0.0 0.0 0.00 0.00 0.00 78 1018.5
20260508203551 12 46 0.0 0.0 0.00 0.00 0.00 80 1018.5
20260508203047 12 32 0.0 0.0 0.00 0.00 0.00 81 1018.5
20260508202544 12 33 0.0 0.0 0.00 0.00 0.00 82 1018.7
20260508202042 12 38 0.0 0.0 0.00 0.00 0.00 82 1018.7